www.pogodaiklimat.ru

Погода и климат >> Архив погоды >> Индия >> Nagpur


ПОГОДА в Nagpur

  • Прогноз погоды в Nagpur
  • Монитор погоды в Nagpur
  • Климат города

АРХИВ ПОГОДЫ в Nagpur

Время (UTC), дата Ветер
(напр.,м/с)
 
Видим.   Явления Облачность Т
(С)
Тd
(С)
f
(%)
Тe
(С)
Тes
(С)
Комфортность P
(гПа)
Po
(гПа)
Тmin
(С)
Tmax
(С)
R
(мм)
S
(см)
09 17.02 С 3 4000 м мгла ясно +33.0 +14.9 34 +35 +44 душно 1012.6 1013.0
12 17.02 ЮВ 2 4000 м мгла 3/0
[Ci fib]
+31.6 +15.1 37 +34 +34 душно 1011.8 1012.0 +33.9
15 17.02 штиль 0 4000 м мгла ясно +23.2 +13.2 53 +26 +26 жарко 1015.2 1015.0
18 17.02 штиль 0 4000 м мгла ясно +22.0 +13.8 60 +25 +25 комфорт 1016.7 1017.0
21 17.02 штиль 0 4000 м мгла ясно +18.0 +11.8 67 +18 +18 1016.4 1016.0
00 18.02 штиль 0 4000 м мгла ясно +17.2 +11.3 68 +17 +17 1016.6 1017.0
03 18.02 С 1 4000 м мгла ясно +23.8 +11.8 47 +25 +31 комфорт 1018.0 1018.0 +15.2
06 18.02 В 3 4000 м мгла ясно +30.8 +14.8 38 +33 +45 душно 1016.9 1017.0
09 18.02 СВ 2 4000 м мгла ясно +33.6 +16.2 35 +36 +47 очень
душно
1013.0 1013.0
12 18.02 В 2 4000 м мгла ясно +33.0 +16.2 37 +36 +36 очень
душно
1012.2 1012.0 +35.0
15 18.02 СЗ 2 4000 м мгла ясно +24.0 +14.6 56 +27 +27 жарко 1015.5 1016.0
18 18.02 штиль 0 4000 м мгла ясно +19.6 +12.9 65 +21 +21 комфорт 1016.2 1016.0
21 18.02 штиль 0 4000 м мгла ясно +17.6 +11.4 67 +18 +18 1015.5 1016.0
00 19.02 С 1 4000 м мгла ясно +18.0 +11.8 67 +19 +19 1015.6 1016.0
03 19.02 С 2 4000 м мгла ясно +23.4 +13.9 55 +27 +31 душно 1017.0 1017.0 +16.7
06 19.02 В 2 4000 м мгла ясно +31.6 +15.5 38 +34 +51 опасность
солнечного
удара
1015.7 1016.0
09 19.02 СВ 1 4000 м мгла ясно +34.4 +16.5 34 +37 +49 очень
душно
1010.6 1011.0
12 19.02 В 2 4000 м мгла ясно +33.0 +16.6 38 +36 +36 очень
душно
1009.6 1010.0 +35.6
15 19.02 В 2 4000 м мгла ясно +24.8 +14.8 54 +28 +28 жарко 1012.1 1012.0
18 19.02 штиль 0 2000 м мгла ясно +20.6 +13.7 65 +23 +23 комфорт 1012.9 1013.0
21 19.02 штиль 0 2000 м мгла ясно +17.2 +12.5 74 +17 +17 1011.3 1011.0
00 20.02 штиль 0 2000 м мгла ясно +15.6 +11.9 79 +15 +15 1011.2 1011.0
03 20.02 штиль 0 2000 м мгла ясно +23.8 +11.8 47 +25 +32 комфорт 1012.4 1012.0 +14.6
06 20.02 З 2 4000 м мгла ясно +32.2 +17.2 41 +36 +53 опасность
солнечного
удара
1011.0 1011.0
09 20.02 З 2 4000 м мгла ясно +36.0 +17.5 34 +39 +51 опасность
солнечного
удара
1005.7 1006.0
12 20.02 СЗ 2 4000 м мгла ясно +34.4 +16.1 34 +37 +37 очень
душно
1004.8 1005.0 +37.6
15 20.02 З 1 2000 м мгла ясно +24.4 +13.9 52 +27 +27 жарко 1007.6 1008.0
18 20.02 штиль 0 2000 м мгла ясно +23.0 +12.5 52 +26 +26 жарко 1008.2 1008.0
21 20.02 штиль 0 2000 м мгла ясно +18.6 +12.1 66 +19 +19 1007.3 1007.0
00 21.02 штиль 0 2000 м мгла ясно +16.4 +10.8 69 +16 +16 1008.3 1008.0
03 21.02 ЮЗ 1 4000 м мгла ясно +24.6 +14.1 52 +27 +32 жарко 1010.1 1010.0 +14.9
06 21.02 ЮЗ 2 4000 м мгла ясно +33.4 +17.6 39 +37 +53 опасность
солнечного
удара
1009.2 1009.0
09 21.02 СЗ 4 4000 м мгла ясно +37.0 +18.1 33 +41 +48 опасность
перегрева
1005.4 1005.0
12 21.02 З 4 4000 м мгла ясно +35.0 +16.9 34 +38 +38 очень
душно
1004.5 1005.0 +37.8
15 21.02 ЮЗ 1 4000 м мгла ясно +23.6 +12.9 51 +26 +26 жарко 1008.2 1008.0
18 21.02 штиль 0 4000 м мгла ясно +23.2 +12.4 51 +26 +26 жарко 1008.9 1009.0
21 21.02 штиль 0 4000 м мгла ясно +20.0 +11.7 59 +21 +21 комфорт 1009.2 1009.0
00 22.02 штиль 0 4000 м мгла ясно +16.6 +11.0 69 +17 +17 1009.3 1009.0
03 22.02 С 3 2000 м мгла ясно +24.0 +13.4 51 +26 +30 жарко 1011.9 1012.0 +15.2
06 22.02 СЗ 3 4000 м мгла ясно +31.4 +15.7 39 +34 +48 душно 1011.9 1012.0
09 22.02 СЗ 4 4000 м мгла ясно +35.8 +17.6 34 +39 +46 очень
душно
1008.1 1008.0
12 22.02 СЗ 2 4000 м мгла ясно +33.8 +15.7 34 +36 +36 очень
душно
1007.6 1008.0 +36.3
15 22.02 СЗ 2 2000 м мгла ясно +24.2 +12.8 49 +26 +26 жарко 1011.0 1011.0
18 22.02 штиль 0 2000 м мгла ясно +20.4 +11.8 58 +22 +22 комфорт 1011.9 1012.0
21 22.02 штиль 0 2000 м мгла ясно +18.8 +11.1 61 +19 +19 1011.1 1011.0
00 23.02 штиль 0 2000 м мгла ясно +16.6 +10.2 66 +17 +17 1011.5 1012.0
03 23.02 СЗ 1 2000 м мгла ясно +23.0 +10.8 46 +25 +31 комфорт 1014.0 1014.0 +15.1
06 23.02 СВ 2 4000 м мгла ясно +31.4 +15.7 39 +34 +51 опасность
солнечного
удара
1013.4 1013.0
09 23.02 СЗ 2 4000 м мгла ясно +34.6 +17.6 37 +38 +50 очень
душно
1009.6 1010.0
12 23.02 СЗ 3 4000 м мгла ясно +33.4 +16.4 36 +36 +36 очень
душно
1009.2 1009.0 +35.9
15 23.02 С 2 2000 м мгла ясно +24.4 +13.9 52 +27 +27 жарко 1012.5 1013.0
18 23.02 С 3 2000 м мгла ясно +25.0 +13.8 50 +27 +27 жарко 1013.6 1014.0
21 23.02 СЗ 1 2000 м мгла ясно +18.8 +12.0 65 +21 +21 комфорт 1013.4 1013.0
00 24.02 С 1 2000 м мгла ясно +17.6 +11.0 65 +19 +19 1014.3 1014.0
03 24.02 СВ 2 4000 м мгла ясно +23.0 +11.7 49 +25 +30 комфорт 1016.9 1017.0 +15.5

 

Местоположение метеостанции Nagpur (Maharashtra, Индия): широта 21.10 долгота 79.05 высота над уровнем моря 310 м.

В архиве по умолчанию представлена погода в Nagpur за последнюю неделю. Архивные данные за месяц целиком и за предыдущие месяцы, начиная с января 2011 года, Вы можете получить, выбрав интересующий диапазон дат из раскрывающегося списка и нажав кнопку "Ввод!".

Внимание! Время в таблицах - всемирное. Для получения местного времени необходимо прибавить поправку, которая в Nagpur равна 5.5 ч.

Смотрите также архив погоды в соседних городах и на ближайших метеорологических станциях:

Погода в Wardha (Maharashtra, Индия) (68 км)
Погода в Bramhapuri (Maharashtra, Индия) (100 км)
Погода в Chhindwara (Madhya Pradesh, Индия) (111 км)
Погода в Seoni (Madhya Pradesh, Индия) (121 км)
Погода в Yeotmal (Maharashtra, Индия) (122 км)
Погода в Gondia (Maharashtra, Индия) (126 км)
Погода в Chandrapur (Maharashtra, Индия) (128 км)
Погода в Amraoti (Maharashtra, Индия) (133 км)
Погода в Betul (Madhya Pradesh, Индия) (144 км)
Погода в Pachmarhi (Madhya Pradesh, Индия) (165 км)

Пояснения к столбцам:

Ветер - указаны скорость ветра в м/с - средняя за 10 мин, порывы в срок и между сроками (в фигурных скобках) и направление, откуда дует ветер: С - северный, СВ - северо-восточный, В - восточный, ЮВ - юго-восточный, Ю - южный, ЮЗ - юго-западный, З - западный, СЗ - северо-западный.
Видимость - горизонтальная дальность видимости в метрах или километрах. При видимости от 1 до 10 км при отсутствии осадков обычно наблюдается дымка, при ухудшении видимости до 1 км и менее - туман. В сухую погоду видимость может ухудшаться дымом, пылью или мглою.
Явления - указаны атмосферные явления, наблюдавшиеся в срок или в последний час перед сроком; фигурными скобками обозначены явления, наблюдавшиеся между сроками (за 1-3 часа до срока); квадратными скобками обозначены град или гололедные отложения с указанием их диаметра в мм.
Облачность - указаны через наклонную черту общая и нижняя облачность в баллах и высота нижней границы облаков в метрах; квадратными скобками обозначены формы облаков: Ci - перистые, Cs - перисто-слоистые, Cc - перисто-кучевые, Ac - высококучевые, As - высокослоистые, Sc - слоисто-кучевые, Ns - слоисто-дождевые, Cu - кучевые, Cb - кучево-дождевые. Подробнее классификацию облаков см. в Атласе облаков (PDF).
T - Температура воздуха - температура, измеренная на высоте 2 м над землей.
Td - Температура точки росы - температура, при понижении до которой содержащийся в воздухе водяной пар достигнет насыщения.
f - Относительная влажность воздуха - влажноcть воздуха, измеренная на высоте 2 м над землей.
Te - Эффективная температура - температура, которую ощущает одетый по сезону человек в тени. Характеристика душности погоды. При расчете учитывается влияние влажности воздуха и скорости ветра на теплоощущения человека.
Tes - Эффективная температура на солнце - температура, которую ощущает человек, с поправкой на солнечный нагрев. Характеристика знойности погоды. Зависит от высоты солнца над горизонтом, облачности и скорости ветра. Ночью, в пасмурную погоду, а также при ветре 12 м/с и более поправка равна нулю.
P - Атмосферное давление - приведенное к уровню моря атмосферное давление.
Po - Атмосферное давление - измеренное на уровне метеостанции атмосферное давление.
Tmin - Минимальная температура - минимум температуры воздуха на высоте 2 м над землей.
Tmax - Максимальная температура - максимум температуры воздуха на высоте 2 м над землей.
R - Количество осадков - Количество выпавших осадков, мм. При наведении курсора мыши на число - период времени, за который выпало указанное количество осадков.
S - Снежный покров - Высота снежного покрова, см. При наведении курсора мыши на число - состояние снежного покрова и степень покрытия местности в баллах.